Flag for Norway Weather past 2 weeks in Langevåg, Norway

Now
55 °F

Partly sunny.


Feels Like: 53 °F
Forecast: 53 / 60 °F
Wind: 8 mph from Northeast

Location: Alesund / Vigra

Current Time: Aug 21, 2014 at 8:53:22 PM

Latest Report: Aug 21, 2014 at 8:20 PM


Visibility: N/A

Pressure: 29.71 "Hg

Humidity: 82%

Dew point: 50 °F

Location of LangevågLocation

Historic Weather in Langevåg — Graph

°F

Langevåg temperature yesterday

Maximum temperature yesterday: 55 °F (at 12:20 AM)
Minimum temperature yesterday: 52 °F (at 9:50 AM)
Average temperature yesterday: 54 °F

Past Weeks' High & Low Weather Summary

 TemperatureHumidityPressure
High73 °F (Aug 9, 3:20 PM)100% (Aug 7, 12:50 AM)29.98 "Hg (Aug 7, 12:50 AM)
Low48 °F (Aug 16, 3:50 AM)38% (Aug 12, 1:50 PM)29.21 "Hg (Aug 18, 7:20 AM)
Average60 °F79%29.55 "Hg
* Reported Aug 6 7:20 PM — Aug 21 7:50 PM, Langevåg, Weather by CustomWeather, © 2014

Note: Actual official high and low records may vary slightly from our data, if they occured in-between our weather recording intervals... More about our weather records

Advertising

Langevåg weather history for previous 24 hours

 ConditionsComfort  
Time TempWeatherWind HumidityBarometerVisibility
7:50 PM
Aug 21
55 °FPartly sunny.5 mph82%29.71 "HgN/A
7:20 PM55 °FPartly sunny.3 mph77%29.71 "HgN/A
6:20 PM57 °FPartly sunny.5 mph72%29.71 "HgN/A
5:50 PM55 °FBroken clouds.5 mph77%29.71 "HgN/A
5:20 PM55 °FScattered showers. Broken clouds.7 mph77%29.71 "HgN/A
4:50 PM55 °FScattered showers. Broken clouds.6 mph82%29.68 "HgN/A
4:20 PM55 °FScattered showers. Broken clouds.5 mph82%29.68 "HgN/A
3:50 PM55 °FPartly sunny.6 mph82%29.68 "HgN/A
3:20 PM55 °FDrizzle. Broken clouds.5 mph82%29.68 "HgN/A
2:50 PM55 °FDrizzle. Broken clouds.6 mph82%29.68 "HgN/A
2:20 PM55 °FLight rain. Partly sunny.3 mph82%29.68 "HgN/A
1:50 PM55 °FBroken clouds.3 mph82%29.68 "HgN/A
1:20 PM55 °FBroken clouds.1 mph82%29.68 "HgN/A
12:50 PM55 °FScattered showers. Broken clouds.3 mph82%29.68 "HgN/A
12:20 PM55 °FBroken clouds.5 mph82%29.68 "HgN/A
11:50 AM54 °FBroken clouds.6 mph88%29.65 "HgN/A
11:20 AM54 °FBroken clouds.5 mph94%29.65 "HgN/A
10:50 AM54 °FDrizzle. Partly sunny.7 mph88%29.65 "HgN/A
10:20 AM54 °FSprinkles. Broken clouds.3 mph88%29.65 "HgN/A
9:50 AM54 °FSprinkles. Broken clouds.5 mph88%29.65 "Hg6 mi
9:20 AM54 °FScattered showers. Broken clouds.6 mph88%29.65 "HgN/A
8:50 AM54 °FScattered showers. Broken clouds.7 mph88%29.62 "HgN/A
8:20 AM52 °FScattered showers. Broken clouds.6 mph94%29.62 "HgN/A
7:50 AM52 °FScattered showers. Broken clouds.8 mph94%29.62 "HgN/A
7:20 AM52 °FRain showers. Broken clouds.10 mph94%29.62 "HgN/A
6:50 AM52 °FRain. Partly cloudy.6 mph94%29.62 "HgN/A
6:20 AM52 °FRain showers. Partly cloudy.2 mph94%29.62 "HgN/A
5:50 AM52 °FScattered showers. Partly cloudy.No wind94%29.62 "HgN/A
5:20 AM52 °FLight rain. Passing clouds.5 mph94%29.62 "HgN/A
4:50 AM52 °FRain. Passing clouds.5 mph94%29.59 "HgN/A
4:20 AM54 °FLight rain. Overcast.10 mph88%29.62 "HgN/A
3:50 AM54 °FPartly cloudy.10 mph94%29.62 "HgN/A
3:20 AM54 °FPassing clouds.12 mph88%29.59 "HgN/A
2:50 AM54 °FPartly cloudy.13 mph94%29.59 "HgN/A
2:20 AM54 °FRain. Partly cloudy.14 mph94%29.59 "Hg3 mi
1:50 AM54 °FPartly cloudy.12 mph88%29.59 "HgN/A
1:20 AM54 °FPartly cloudy.12 mph94%29.59 "HgN/A
12:50 AM54 °FPartly cloudy.13 mph88%29.59 "HgN/A
12:20 AM54 °FDrizzle. Mostly cloudy.14 mph94%29.59 "Hg3 mi
11:50 PM
Aug 20
54 °FPartly cloudy.14 mph94%29.59 "HgN/A
11:20 PM54 °FScattered showers. Partly cloudy.12 mph94%29.59 "HgN/A
10:50 PM54 °FScattered showers. Partly cloudy.13 mph88%29.59 "HgN/A
10:20 PM54 °FScattered showers. Broken clouds.13 mph88%29.59 "HgN/A
9:50 PM54 °FScattered showers. Broken clouds.12 mph88%29.59 "HgN/A
9:20 PM54 °FSleet. Broken clouds.14 mph88%29.59 "HgN/A
8:50 PM54 °FDrizzle. Broken clouds.14 mph88%29.59 "HgN/A
8:20 PM54 °FDrizzle. Broken clouds.14 mph88%29.59 "HgN/A
Weather by CustomWeather, © 2014

See weather overviewHow to use our weather pages